Lima, OH

9:00 PM EDT on October 16, 2017 (GMT -0400)
Lima Allen County

Weather History for KAOH - September, 2012

Change the Weather History Date:

Saturday, September 22, 2012

  Actual Average (KFDY) Record (KFDY)
Temperature  
Mean Temperature 55 °F -  
Max Temperature 64 °F 70 °F 91 °F (2017)
Min Temperature 45 °F 50 °F 33 °F (1999)
Degree Days  
Heating Degree Days 10    
Growing Degree Days 5 (Base 50)    
Moisture  
Dew Point 46 °F    
Average Humidity 78    
Maximum Humidity 93    
Minimum Humidity 56    
Precipitation  
Precipitation 0.12 in - - ()
Sea Level Pressure  
Sea Level Pressure 29.90 in    
Wind  
Wind Speed 9 mph (West)    
Max Wind Speed 26 mph    
Max Gust Speed 48 mph    
Visibility 9 miles    
Events Rain , Thunderstorm    
Averages and records for this station are not official NWS values.
T = Trace of Precipitation, MM = Missing Value Source: NWS Daily Summary

Daily Weather History Graph

Daily Weather History Graph

Search for Another Location

Airport or City:

Trip Planner

Search our weather history database for the weather conditions in past years. The results will help you decide how hot, cold, wet, or windy it might be!

Date:

Astronomy

Sep. 22, 2012 Rise Set
Actual Time 7:24 AM EDT 7:32 PM EDT
Civil Twilight 6:56 AM EDT 7:59 PM EDT
Nautical Twilight 6:24 AM EDT 8:31 PM EDT
Astronomical Twilight 5:52 AM EDT 9:04 PM EDT
Moon 2:43 PM EDT (9/22) No Moon Set
Length of Visible Light 13h 02m
Length of Day
12h 08m
Waxing Crescent, 48% of the Moon is Illuminated
Sep 22
Waxing Crescent
Sep 22
First Quarter
Sep 29
Full
Oct 8
Last Quarter
Oct 15
New

Hourly Weather History & Observations

Time (EDT) Temp. Windchill Dew Point Humidity Pressure Visibility Wind Dir Wind Speed Gust Speed Precip Events Conditions
12:15 AM 51.8 °F - 48.2 °F 88% 29.75 in 10.0 mi East 8.1 mph - 0.01 in Rain Light Rain
12:24 AM 51.8 °F - 48.2 °F 88% 29.74 in 10.0 mi East 6.9 mph - 0.01 in Rain Light Rain
12:53 AM 51.1 °F - 48.9 °F 92% 29.75 in 10.0 mi North 4.6 mph - 0.01 in   Overcast
1:53 AM 52.0 °F - 48.9 °F 89% 29.75 in 10.0 mi North 3.5 mph - N/A   Overcast
2:53 AM 52.0 °F - 48.9 °F 89% 29.76 in 10.0 mi Calm Calm - N/A   Overcast
3:53 AM 53.1 °F - 50.0 °F 89% 29.77 in 6.0 mi Calm Calm - N/A   Overcast
4:53 AM 52.0 °F - 50.0 °F 93% 29.79 in 4.0 mi WNW 3.5 mph - N/A   Overcast
5:53 AM 53.1 °F - 48.9 °F 86% 29.80 in 7.0 mi WSW 6.9 mph - N/A   Overcast
6:53 AM 52.0 °F - 48.0 °F 86% 29.83 in 8.0 mi WSW 8.1 mph - N/A   Mostly Cloudy
7:18 AM 51.8 °F - 48.2 °F 88% 29.83 in 6.0 mi West 8.1 mph - N/A   Overcast
7:53 AM 51.1 °F - 48.9 °F 92% 29.85 in 6.0 mi WSW 8.1 mph - N/A   Overcast
8:53 AM 52.0 °F - 48.0 °F 86% 29.86 in 8.0 mi SSW 10.4 mph - N/A   Mostly Cloudy
9:42 AM 53.6 °F - 48.2 °F 82% 29.87 in 9.0 mi WSW 9.2 mph - N/A   Mostly Cloudy
9:53 AM 55.0 °F - 48.9 °F 80% 29.88 in 10.0 mi WSW 9.2 mph - N/A   Mostly Cloudy
10:09 AM 55.4 °F - 48.2 °F 77% 29.88 in 10.0 mi WSW 12.7 mph - N/A   Scattered Clouds
10:53 AM 57.0 °F - 48.9 °F 74% 29.88 in 10.0 mi WSW 8.1 mph - N/A   Partly Cloudy
11:53 AM 62.1 °F - 48.9 °F 62% 29.88 in 10.0 mi WSW 12.7 mph 16.1 mph N/A   Partly Cloudy
12:53 PM 64.0 °F - 50.0 °F 60% 29.86 in 10.0 mi SW 9.2 mph - N/A   Mostly Cloudy
1:53 PM 63.0 °F - 46.9 °F 56% 29.84 in 10.0 mi SW 11.5 mph - N/A   Mostly Cloudy
2:25 PM 60.8 °F - 48.2 °F 63% 29.83 in 10.0 mi WNW 6.9 mph - 0.00 in Thunderstorm Overcast
2:39 PM 59.0 °F - 51.8 °F 77% 29.82 in 10.0 mi WNW 5.8 mph - 0.00 in Rain , Thunderstorm Light Rain
2:53 PM 57.0 °F - 51.1 °F 81% 29.86 in 2.0 mi West 26.5 mph 32.2 mph 0.10 in Rain , Thunderstorm Thunderstorms and Rain
3:05 PM 59.0 °F - 53.6 °F 82% 29.86 in 10.0 mi West 18.4 mph 28.8 mph 0.00 in Thunderstorm Thunderstorm
3:22 PM 57.2 °F - 46.4 °F 67% 29.88 in 10.0 mi West 24.2 mph 36.8 mph 0.00 in   Mostly Cloudy
3:53 PM 51.1 °F - 42.1 °F 71% 29.95 in 10.0 mi WNW 26.5 mph 48.3 mph 0.01 in   Overcast
4:53 PM 52.0 °F - 42.1 °F 69% 30.01 in 10.0 mi WNW 15.0 mph 25.3 mph N/A   Mostly Cloudy
5:46 PM 51.8 °F - 41.0 °F 67% 30.03 in 10.0 mi WNW 12.7 mph - N/A   Scattered Clouds
5:53 PM 51.1 °F - 41.0 °F 68% 30.04 in 10.0 mi WNW 13.8 mph - N/A   Partly Cloudy
6:53 PM 51.1 °F - 39.0 °F 63% 30.07 in 10.0 mi WNW 10.4 mph - N/A   Partly Cloudy
7:53 PM 48.9 °F - 39.0 °F 69% 30.08 in 10.0 mi West 11.5 mph - N/A   Clear
8:53 PM 46.0 °F 43.1 °F 39.0 °F 76% 30.11 in 10.0 mi West 5.8 mph - N/A   Clear
9:53 PM 46.9 °F - 39.0 °F 74% 30.13 in 10.0 mi WSW 6.9 mph - N/A   Clear
10:53 PM 46.0 °F 41.9 °F 39.0 °F 76% 30.14 in 10.0 mi WSW 8.1 mph - N/A   Clear
11:53 PM 45.0 °F 41.2 °F 39.0 °F 80% 30.14 in 10.0 mi WSW 6.9 mph - N/A   Clear